Regional Weather Roundup
Issued by NWS

Home | Current Version | Previous Version | Graphics & Text | Print | Product List | Glossary On
Versions: 1 2 3 4 5 6 7 8 9 10 11 12 13 14 15 16 17 18 19 20 21 22 23 24 25 26 27 28 29 30 31 32 33 34 35 36 37 38 39 40 41 42 43 44 45 46 47 48 49 50
000
ASUS45 KABQ 290601
RWRNM
NEW MEXICO REGIONAL WEATHER ROUNDUP
NATIONAL WEATHER SERVICE ALBUQUERQUE NM
1200 AM MDT FRI APR 29 2016

NOTE: "FAIR" MEANS FEW OR NO CLOUDS BELOW 12,000 FEET AGL WITH NO
       SIGNIFICANT WEATHER OR OBSTRUCTIONS TO VISION.

      THIS PRODUCT IS RELEASED AS TWO VERSIONS.  ONE VERSION NEAR
      THE TOP OF THE HOUR CONTAINING PRELIMINARY DATA FROM ALBUQUERQUE
      AND OTHER STATIONS.  A FINAL VERSION WITH ADDITIONAL DATA IS
      ISSUED ABOUT 10 MINUTES AFTER THE HOUR.

NMZ501-503-504-510>518-290700-
NORTHWEST PLATEAU/NORTHCENTRAL MOUNTAINS

CITY           SKY/WX    TMP DP  RH WIND       PRES   REMARKS
FARMINGTON     CLOUDY    48  28  46 CALM      29.82S
6HR MIN TEMP:  47; 6HR MAX TEMP:  56;

SANTA FE       MOCLDY    55  31  39 SE13      29.78S
6HR MIN TEMP:  55; 6HR MAX TEMP:  63;

TAOS           FAIR      46  28  49 E20       29.86R
ANGEL FIRE     LGT RAIN  37  34  90 CALM      29.95F

$$
NMZ402-403-502-505>509-290700-
WESTCENTRAL MOUNTAINS/SOUTHWEST MOUNTAINS

CITY           SKY/WX    TMP DP  RH WIND       PRES   REMARKS
GALLUP         MOCLDY    45  22  40 SE15      29.87S
6HR MIN TEMP:  44; 6HR MAX TEMP:  58;

GRANTS         CLOUDY    40  30  66 N15       29.91R WCI  32
SILVER CITY      N/A     50  28  43 NW12      29.87R

$$
NMZ407-409-411-412-290700-
SOUTHERN DESERTS

CITY           SKY/WX    TMP DP  RH WIND       PRES   REMARKS
LORDSBURG      FAIR      54  27  35 W12       29.84R
DEMING         MOCLDY    61  30  31 W21G31    29.81R
6HR MIN TEMP:  61; 6HR MAX TEMP:  76;

HOLLOMAN AFB   FAIR      61  21  21 SE6       29.73R
ALAMOGORDO     FAIR      61  21  21 S10       29.75R
T OR C         MOCLDY    61  23  23 W14       29.76R
6HR MIN TEMP:  61; 6HR MAX TEMP:  75;


$$
NMZ519>523-290700-
CENTRAL VALLEYS/CENTRAL HIGHLANDS

CITY           SKY/WX    TMP DP  RH WIND       PRES   REMARKS
ALBUQUERQUE    MOCLDY    59  20  22 NW16G23   29.79R
6HR MIN TEMP:  59; 6HR MAX TEMP:  71;

DOUBLE EAGLE   FAIR      54  23  30 NW18G25   29.82R
CLINES CORNERS CLOUDY    46  39  76 NE17      29.85R
6HR MIN TEMP:  45; 6HR MAX TEMP:  65;

BELEN          FAIR      58  18  21 NW14      29.79R
6HR MIN TEMP:  58; 6HR MAX TEMP:  74;

SOCORRO        NOT AVBL

$$
NMZ524>526-539-540-290700-
SOUTHCENTRAL MOUNTAINS

CITY           SKY/WX    TMP DP  RH WIND       PRES   REMARKS
RUIDOSO        NOT AVBL

$$
NMZ527>531-290700-
NORTHEAST HIGHLANDS/NORTHEAST PLAINS

CITY           SKY/WX    TMP DP  RH WIND       PRES   REMARKS
LAS VEGAS      CLOUDY    44  38  79 NE21      29.88F
6HR MIN TEMP:  44; 6HR MAX TEMP:  58;

RATON          LGT RAIN  35  33  92 N13       29.95R WCI  26
6HR MIN TEMP:  35; 6HR MAX TEMP:  46; 6HR PCP:  0.47;

CLAYTON        CLOUDY    41  38  89 NE22      29.93R
6HR MIN TEMP:  40; 6HR MAX TEMP:  57; 6HR PCP:  0.43;


$$
NMZ532>537-290700-
EASTCENTRAL PLAINS

CITY           SKY/WX    TMP DP  RH WIND       PRES   REMARKS
TUCUMCARI      CLOUDY    54  48  80 NE16      29.77S
6HR MIN TEMP:  54; 6HR MAX TEMP:  70;

CANNON AFB     CLOUDY    61  46  59 SE14      29.73F
6HR MIN TEMP:  58; 6HR MAX TEMP:  80;

CLOVIS AIRPORT FAIR      57  48  72 E15       29.76S

$$
NMZ028-029-538-290700-
SOUTHEAST PLAINS

CITY           SKY/WX    TMP DP  RH WIND       PRES   REMARKS
ROSWELL        FAIR      54  20  26 SW5       29.69R
6HR MIN TEMP:  50; 6HR MAX TEMP:  83;

ARTESIA        FAIR      59  16  18 SW13      29.70S
CARLSBAD       FAIR      67  47  48 W3        29.66R
6HR MIN TEMP:  63; 6HR MAX TEMP:  87;

HOBBS          FAIR      66  55  68 SE16G22   29.70F


$$




USA.gov is the U.S. government's official web portal to all federal, state and local government web resources and services.